When you browse on this site, cookies collect data to enhance your experience and personalize the content and advertising you see.
Visit our Privacy Policy to learn more. By continuing to use the site, you agree to this use of cookies and data.
  • In Germany
  • List of Countries
  • For 7 days
  • Water Temperature
  • Satellite Maps
  • Weather Map
  • Weather Widgets
  • user-avatar
    Login

    Hourly Weather Goleszyn

    Today, 21 February, Thursday

    Time Temperature Precipitation Wind Pressure Humidity
    00:00 +1°C° 0 mm 3 mps 754 mmHg 91%
    01:00 0°C° 0 mm 3 mps 754 mmHg 94%
    02:00 +1°C° 0 mm 3 mps 754 mmHg 94%
    03:00 +1°C° 0 mm 3 mps 754 mmHg 94%
    04:00 +1°C° 0 mm 3 mps 754 mmHg 94%
    05:00 +1°C° 0.2 mm 3 mps 754 mmHg 95%
    06:00 +2°C° 0.2 mm 3 mps 754 mmHg 96%
    07:00 +2°C° 0.2 mm 3 mps 754 mmHg 96%
    08:00 +2°C° 0.2 mm 3 mps 754 mmHg 95%
    09:00 +3°C° 0.2 mm 4 mps 754 mmHg 94%
    10:00 +3°C° 0.2 mm 4 mps 754 mmHg 93%
    11:00 +3°C° 0.9 mm 4 mps 754 mmHg 92%
    12:00 +3°C° 0.9 mm 5 mps 754 mmHg 91%
    13:00 +3°C° 0.9 mm 5 mps 753 mmHg 91%
    14:00 +3°C° 0.7 mm 5 mps 753 mmHg 91%
    15:00 +3°C° 0.7 mm 5 mps 753 mmHg 91%
    16:00 +3°C° 0.7 mm 5 mps 753 mmHg 91%
    17:00 +3°C° 0.7 mm 5 mps 752 mmHg 92%
    18:00 +4°C° 0.7 mm 4 mps 752 mmHg 93%
    19:00 +4°C° 0.7 mm 4 mps 752 mmHg 94%
    20:00 +4°C° 0.8 mm 4 mps 752 mmHg 95%
    21:00 +4°C° 0.8 mm 4 mps 752 mmHg 95%
    22:00 +4°C° 0.8 mm 4 mps 752 mmHg 96%
    23:00 +2°C° 0.5 mm 5 mps 752 mmHg 94%

    Tomorrow, 22 February, Friday

    Time Temperature Precipitation Wind Pressure Humidity
    00:00 +1°C° 0.5 mm 6 mps 753 mmHg 92%
    01:00 -1°C° 0.5 mm 7 mps 753 mmHg 89%
    02:00 -2°C° 0.2 mm 7 mps 754 mmHg 86%
    03:00 -3°C° 0.2 mm 7 mps 755 mmHg 83%
    04:00 -4°C° 0.2 mm 7 mps 756 mmHg 79%
    05:00 -5°C° 0 mm 6 mps 757 mmHg 74%
    06:00 -5°C° 0 mm 6 mps 759 mmHg 69%
    07:00 -5°C° 0 mm 6 mps 760 mmHg 64%
    08:00 -5°C° 0 mm 6 mps 761 mmHg 60%
    09:00 -5°C° 0 mm 6 mps 763 mmHg 56%
    10:00 -4°C° 0 mm 6 mps 764 mmHg 52%
    11:00 -4°C° 0 mm 5 mps 764 mmHg 48%
    12:00 -4°C° 0 mm 5 mps 765 mmHg 45%
    13:00 -2°C° 0 mm 4 mps 765 mmHg 42%
    14:00 -3°C° 0 mm 4 mps 766 mmHg 43%
    15:00 -3°C° 0 mm 4 mps 766 mmHg 44%
    16:00 -3°C° 0 mm 4 mps 766 mmHg 45%
    17:00 -4°C° 0 mm 4 mps 767 mmHg 48%
    18:00 -4°C° 0 mm 4 mps 767 mmHg 51%
    19:00 -5°C° 0 mm 3 mps 768 mmHg 53%
    20:00 -5°C° 0 mm 3 mps 768 mmHg 51%
    21:00 -5°C° 0 mm 3 mps 769 mmHg 49%
    22:00 -5°C° 0 mm 3 mps 769 mmHg 47%
    23:00 -5°C° 0 mm 3 mps 769 mmHg 46%

    Day after tomorrow, 23 February, Saturday

    Time Temperature Precipitation Wind Pressure Humidity
    00:00 -4°C° 0 mm 2 mps 770 mmHg 44%
    01:00 -4°C° 0 mm 2 mps 770 mmHg 43%
    02:00 -4°C° 0 mm 2 mps 770 mmHg 43%
    03:00 -3°C° 0 mm 1 mps 770 mmHg 44%
    04:00 -3°C° 0 mm 1 mps 769 mmHg 44%
    05:00 -3°C° 0 mm 1 mps 770 mmHg 45%
    06:00 -3°C° 0 mm 1 mps 770 mmHg 46%
    07:00 -3°C° 0 mm 1 mps 770 mmHg 46%
    08:00 -2°C° 0 mm 1 mps 771 mmHg 42%
    09:00 -3°C° 0 mm 0 mps 771 mmHg 38%
    10:00 -2°C° 0 mm 0 mps 771 mmHg 35%
    11:00 -1°C° 0 mm 0 mps 771 mmHg 33%
    12:00 0°C° 0 mm 1 mps 770 mmHg 30%
    13:00 +1°C° 0 mm 1 mps 770 mmHg 28%
    14:00 +1°C° 0 mm 1 mps 770 mmHg 30%
    15:00 +1°C° 0 mm 1 mps 770 mmHg 31%
    16:00 +1°C° 0 mm 1 mps 769 mmHg 32%
    17:00 +1°C° 0 mm 1 mps 769 mmHg 35%
    18:00 0°C° 0 mm 1 mps 769 mmHg 38%
    19:00 0°C° 0 mm 1 mps 769 mmHg 40%
    20:00 0°C° 0 mm 1 mps 769 mmHg 41%
    21:00 -2°C° 0 mm 2 mps 768 mmHg 42%
    22:00 -2°C° 0 mm 2 mps 768 mmHg 43%
    23:00 -2°C° 0 mm 2 mps 768 mmHg 44%

    24 February, Sunday

    Time Temperature Precipitation Wind Pressure Humidity
    00:00 -3°C° 0 mm 2 mps 768 mmHg 44%
    01:00 -4°C° 0 mm 3 mps 768 mmHg 45%
    02:00 -4°C° 0 mm 3 mps 767 mmHg 45%
    03:00 -4°C° 0 mm 3 mps 767 mmHg 45%
    04:00 -4°C° 0 mm 3 mps 766 mmHg 44%
    05:00 -4°C° 0 mm 3 mps 766 mmHg 45%
    06:00 -4°C° 0 mm 3 mps 766 mmHg 45%
    07:00 -2°C° 0 mm 3 mps 766 mmHg 45%
    08:00 -2°C° 0 mm 4 mps 765 mmHg 44%
    09:00 -1°C° 0 mm 4 mps 765 mmHg 44%
    10:00 -1°C° 0 mm 4 mps 765 mmHg 43%
    11:00 +1°C° 0 mm 4 mps 764 mmHg 44%
    12:00 +3°C° 0 mm 4 mps 764 mmHg 46%
    13:00 +4°C° 0 mm 4 mps 764 mmHg 48%
    14:00 +3°C° 0 mm 3 mps 763 mmHg 54%
    15:00 +3°C° 0 mm 3 mps 763 mmHg 59%
    16:00 +2°C° 0 mm 3 mps 762 mmHg 65%
    17:00 +2°C° 0 mm 3 mps 762 mmHg 69%
    18:00 +1°C° 0 mm 3 mps 762 mmHg 73%
    19:00 0°C° 0 mm 3 mps 762 mmHg 77%
    20:00 +1°C° 0 mm 3 mps 761 mmHg 79%
    21:00 0°C° 0 mm 4 mps 761 mmHg 80%
    22:00 0°C° 0 mm 4 mps 761 mmHg 81%
    23:00 0°C° 0 mm 4 mps 761 mmHg 85%

    25 February, Monday

    Time Temperature Precipitation Wind Pressure Humidity
    00:00 0°C° 0 mm 4 mps 761 mmHg 88%
    01:00 0°C° 0 mm 4 mps 761 mmHg 92%
    02:00 0°C° 0 mm 5 mps 761 mmHg 92%
    03:00 +1°C° 0 mm 5 mps 762 mmHg 92%
    04:00 +1°C° 0 mm 5 mps 762 mmHg 92%
    05:00 0°C° 0 mm 5 mps 762 mmHg 92%
    06:00 0°C° 0 mm 5 mps 763 mmHg 91%
    07:00 -1°C° 0 mm 5 mps 763 mmHg 90%
    08:00 0°C° 0 mm 5 mps 764 mmHg 84%
    09:00 +1°C° 0 mm 5 mps 765 mmHg 79%
    10:00 +2°C° 0 mm 6 mps 765 mmHg 73%
    11:00 +3°C° 0 mm 6 mps 765 mmHg 68%
    12:00 +5°C° 0 mm 5 mps 765 mmHg 63%
    13:00 +6°C° 0 mm 5 mps 765 mmHg 58%
    14:00 +5°C° 0 mm 5 mps 765 mmHg 59%
    15:00 +5°C° 0 mm 4 mps 764 mmHg 61%
    16:00 +5°C° 0 mm 3 mps 764 mmHg 62%
    17:00 +4°C° 0 mm 3 mps 765 mmHg 66%
    18:00 +3°C° 0 mm 3 mps 765 mmHg 70%
    19:00 +2°C° 0 mm 3 mps 765 mmHg 74%
    20:00 +2°C° 0 mm 3 mps 765 mmHg 76%
    21:00 +1°C° 0 mm 3 mps 764 mmHg 77%
    22:00 +1°C° 0 mm 3 mps 764 mmHg 78%
    23:00 +1°C° 0 mm 3 mps 763 mmHg 78%

    26 February, Tuesday

    Time Temperature Precipitation Wind Pressure Humidity
    00:00 0°C° 0 mm 4 mps 762 mmHg 77%
    01:00 0°C° 0 mm 4 mps 761 mmHg 77%
    02:00 0°C° 0 mm 5 mps 761 mmHg 79%
    03:00 0°C° 0 mm 5 mps 760 mmHg 81%
    04:00 0°C° 0 mm 5 mps 759 mmHg 84%
    05:00 0°C° 0 mm 5 mps 759 mmHg 86%
    06:00 +1°C° 0 mm 5 mps 759 mmHg 88%
    07:00 +1°C° 0 mm 5 mps 758 mmHg 90%
    08:00 +2°C° 0 mm 5 mps 758 mmHg 85%
    09:00 +3°C° 0 mm 5 mps 758 mmHg 81%
    10:00 +3°C° 0 mm 5 mps 757 mmHg 77%
    11:00 +5°C° 0 mm 5 mps 757 mmHg 72%
    12:00 +6°C° 0 mm 5 mps 756 mmHg 68%
    13:00 +7°C° 0 mm 6 mps 755 mmHg 64%
    14:00 +7°C° 0 mm 5 mps 755 mmHg 65%
    15:00 +8°C° 0 mm 5 mps 755 mmHg 66%
    16:00 +8°C° 0 mm 5 mps 754 mmHg 66%
    17:00 +7°C° 0 mm 5 mps 754 mmHg 72%
    18:00 +6°C° 0 mm 4 mps 754 mmHg 77%
    19:00 +5°C° 0 mm 4 mps 755 mmHg 82%
    20:00 +4°C° 0 mm 4 mps 755 mmHg 85%
    21:00 +4°C° 0 mm 4 mps 755 mmHg 88%
    22:00 +3°C° 0 mm 4 mps 755 mmHg 91%
    23:00 +3°C° 0 mm 4 mps 755 mmHg 92%
    Show more